Location: Champignolles
(47.0543°N, 4.5663°E)
Time: 21:22:56
(UTC+00:00)

Envisat - Pass Details

Date: 09 March 2021
Orbit: 764 x 766 km, 98.1° (Epoch: 12 April)

Event Time Altitude Azimuth Distance (km) Brightness Sun altitude
Rises 04:35:09 0° 22° (NNE) 3,243 6.7 -16.3°
Reaches altitude 10° 04:37:45 10° 33° (NNE) 2,312 6.1 -15.9°
Maximum altitude 04:42:12 30° 94° (E) 1,356 5.1 -15.1°
Drops below altitude 10° 04:46:37 10° 155° (SSE) 2,295 5.7 -14.4°
Sets 04:49:10 0° 166° (SSE) 3,216 6.3 -13.9°
